TimeEDT,TemperatureF,Dew PointF,Humidity,Sea Level PressureIn,VisibilityMPH,Wind Direction,Wind SpeedMPH,Gust SpeedMPH,PrecipitationIn,Events,Conditions,WindDirDegrees,DateUTC
12:52 AM,44.6,44.6,100,-9999,0.1,WNW,24.2,-,N/A,Fog,Fog,290,2013-08-19 04:52:00
1:49 AM,44.6,44.6,100,-9999,0.0,WNW,25.3,-,N/A,Fog,Fog,290,2013-08-19 05:49:00
2:54 AM,44.6,44.6,100,-9999,0.0,WNW,32.2,-,N/A,Fog,Fog,300,2013-08-19 06:54:00
3:52 AM,42.8,42.8,100,-9999,0.1,NW,31.1,-,N/A,Fog,Fog,310,2013-08-19 07:52:00
4:51 AM,42.8,42.8,100,-9999,0.1,NW,35.7,-,N/A,Fog,Fog,320,2013-08-19 08:51:00
5:52 AM,42.8,42.8,100,-9999,0.1,NW,42.6,-,N/A,Fog,Fog,310,2013-08-19 09:52:00
6:49 AM,42.8,42.8,100,-9999,0.1,NW,44.9,-,N/A,Fog,Fog,310,2013-08-19 10:49:00
7:49 AM,44.6,44.6,100,-9999,0.1,WNW,48.3,-,N/A,Fog,Fog,300,2013-08-19 11:49:00
8:47 AM,46.4,46.4,100,-9999,0.1,WNW,47.2,-,N/A,Fog,Fog,300,2013-08-19 12:47:00
9:49 AM,46.4,46.4,100,-9999,0.1,WNW,44.9,-,N/A,Fog,Fog,300,2013-08-19 13:49:00
10:57 AM,48.7,47.7,96,-9999,50.0,WNW,44.9,51.8,N/A,,Mostly Cloudy,300,2013-08-19 14:57:00
11:58 AM,51.8,44.6,76,-9999,50.0,WNW,43.7,54.1,N/A,,Mostly Cloudy,300,2013-08-19 15:58:00
12:50 PM,50.0,48.2,94,-9999,0.2,WNW,41.4,50.6,N/A,Fog,Fog,300,2013-08-19 16:50:00
1:53 PM,50.0,50.0,100,-9999,0.1,WNW,36.8,-,N/A,Fog,Fog,300,2013-08-19 17:53:00
2:52 PM,51.8,51.8,100,-9999,0.1,WNW,36.8,41.4,N/A,Fog,Fog,300,2013-08-19 18:52:00
3:52 PM,50.0,50.0,100,-9999,0.1,WNW,38.0,-,N/A,Fog,Fog,300,2013-08-19 19:52:00
4:52 PM,51.8,51.8,100,-9999,0.0,WNW,41.4,-,N/A,Fog,Fog,300,2013-08-19 20:52:00
5:49 PM,50.0,50.0,100,-9999,0.0,WNW,36.8,46.0,N/A,Fog,Fog,300,2013-08-19 21:49:00
6:57 PM,50.0,50.0,100,-9999,0.0,WNW,35.7,-,N/A,Fog,Fog,300,2013-08-19 22:57:00
7:54 PM,50.0,50.0,100,-9999,0.0,WNW,29.9,-,N/A,Fog,Fog,300,2013-08-19 23:54:00
8:52 PM,48.2,48.2,100,-9999,0.0,WNW,26.5,-,N/A,Fog,Fog,290,2013-08-20 00:52:00
9:51 PM,48.2,48.2,100,-9999,0.1,WNW,21.9,-,N/A,Fog,Fog,290,2013-08-20 01:51:00
10:56 PM,50.0,46.4,87,-9999,30.0,West,15.0,-,N/A,,Mostly Cloudy,280,2013-08-20 02:56:00
11:53 PM,50.0,46.4,87,-9999,30.0,West,12.7,-,N/A,,Scattered Clouds,280,2013-08-20 03:53:00